• In Belarus
  • List of Countries
  • For 7 days
  • Water Temperature
  • Weather Map
  • Weather Widgets
  • user-avatar
    Login

    Hourly Weather Myitkyina

    Today, 17 September, Tuesday

    Time Temperature Precipitation Wind Pressure Humidity
    00:00 +22°C° 0 mm 0 mps 739 mmHg 94%
    01:00 +22°C° 0 mm 0 mps 739 mmHg 94%
    02:00 +21°C° 0 mm 0 mps 739 mmHg 95%
    03:00 +21°C° 0 mm 0 mps 738 mmHg 95%
    04:00 +21°C° 0 mm 0 mps 739 mmHg 94%
    05:00 +21°C° 0 mm 0 mps 739 mmHg 94%
    06:00 +22°C° 0 mm 0 mps 740 mmHg 92%
    07:00 +25°C° 0 mm 0 mps 740 mmHg 82%
    08:00 +28°C° 0 mm 0 mps 740 mmHg 71%
    09:00 +30°C° 0 mm 0 mps 740 mmHg 61%
    10:00 +32°C° 0 mm 0 mps 740 mmHg 55%
    11:00 +34°C° 0 mm 0 mps 739 mmHg 50%
    12:00 +35°C° 0 mm 0 mps 740 mmHg 45%
    13:00 +35°C° 0 mm 0 mps 739 mmHg 44%
    14:00 +35°C° 0 mm 0 mps 738 mmHg 44%
    15:00 +35°C° 0 mm 0 mps 738 mmHg 44%
    16:00 +32°C° 0 mm 0 mps 738 mmHg 52%
    17:00 +30°C° 0 mm 0 mps 738 mmHg 61%
    18:00 +28°C° 0 mm 0 mps 739 mmHg 69%
    19:00 +27°C° 0 mm 0 mps 739 mmHg 72%
    20:00 +26°C° 0 mm 0 mps 740 mmHg 75%
    21:00 +25°C° 0 mm 0 mps 740 mmHg 78%
    22:00 +25°C° 0 mm 0 mps 741 mmHg 79%
    23:00 +24°C° 0 mm 0 mps 741 mmHg 81%

    Tomorrow, 18 September, Wednesday

    Time Temperature Precipitation Wind Pressure Humidity
    00:00 +24°C° 0 mm 0 mps 741 mmHg 83%
    01:00 +24°C° 0.1 mm 0 mps 741 mmHg 84%
    02:00 +23°C° 0.1 mm 0 mps 740 mmHg 86%
    03:00 +23°C° 0.1 mm 0 mps 740 mmHg 88%
    04:00 +23°C° 0 mm 0 mps 741 mmHg 88%
    05:00 +23°C° 0 mm 0 mps 741 mmHg 88%
    06:00 +23°C° 0 mm 0 mps 742 mmHg 89%
    07:00 +26°C° 0 mm 0 mps 742 mmHg 79%
    08:00 +28°C° 0 mm 0 mps 742 mmHg 69%
    09:00 +31°C° 0 mm 0 mps 742 mmHg 59%
    10:00 +33°C° 0 mm 0 mps 741 mmHg 54%
    11:00 +34°C° 0 mm 0 mps 741 mmHg 49%
    12:00 +36°C° 0 mm 0 mps 740 mmHg 44%
    13:00 +36°C° 0 mm 0 mps 739 mmHg 43%
    14:00 +36°C° 0 mm 0 mps 739 mmHg 42%
    15:00 +36°C° 0 mm 0 mps 738 mmHg 41%
    16:00 +33°C° 0 mm 0 mps 738 mmHg 49%
    17:00 +31°C° 0 mm 0 mps 738 mmHg 57%
    18:00 +28°C° 0 mm 0 mps 739 mmHg 66%
    19:00 +28°C° 0 mm 0 mps 739 mmHg 68%
    20:00 +27°C° 0 mm 0 mps 740 mmHg 71%
    21:00 +26°C° 0 mm 0 mps 741 mmHg 74%
    22:00 +25°C° 0 mm 0 mps 741 mmHg 76%
    23:00 +25°C° 0 mm 0 mps 741 mmHg 78%

    Day after tomorrow, 19 September, Thursday

    Time Temperature Precipitation Wind Pressure Humidity
    00:00 +24°C° 0 mm 0 mps 740 mmHg 80%
    01:00 +24°C° 0.1 mm 0 mps 740 mmHg 82%
    02:00 +24°C° 0.1 mm 0 mps 740 mmHg 84%
    03:00 +23°C° 0.1 mm 0 mps 740 mmHg 86%
    04:00 +23°C° 0 mm 0 mps 740 mmHg 87%
    05:00 +23°C° 0 mm 0 mps 740 mmHg 88%
    06:00 +23°C° 0 mm 0 mps 741 mmHg 88%
    07:00 +26°C° 0 mm 0 mps 741 mmHg 78%
    08:00 +29°C° 0 mm 0 mps 741 mmHg 69%
    09:00 +31°C° 0 mm 0 mps 741 mmHg 59%
    10:00 +33°C° 0 mm 0 mps 740 mmHg 53%
    11:00 +35°C° 0 mm 0 mps 739 mmHg 48%
    12:00 +37°C° 0 mm 0 mps 739 mmHg 43%
    13:00 +37°C° 0 mm 0 mps 738 mmHg 42%
    14:00 +36°C° 0 mm 0 mps 737 mmHg 41%
    15:00 +39°C° 0 mm 1 mps 736 mmHg 40%
    16:00 +34°C° 0 mm 0 mps 737 mmHg 48%
    17:00 +31°C° 0 mm 0 mps 737 mmHg 56%
    18:00 +29°C° 0 mm 0 mps 738 mmHg 64%
    19:00 +28°C° 0 mm 0 mps 738 mmHg 66%
    20:00 +27°C° 0 mm 0 mps 739 mmHg 68%
    21:00 +26°C° 0 mm 0 mps 739 mmHg 70%
    22:00 +26°C° 0 mm 0 mps 739 mmHg 72%
    23:00 +25°C° 0 mm 0 mps 739 mmHg 74%

    20 September, Friday

    Time Temperature Precipitation Wind Pressure Humidity
    00:00 +25°C° 0 mm 0 mps 739 mmHg 75%
    01:00 +24°C° 0.2 mm 0 mps 739 mmHg 78%
    02:00 +24°C° 0.2 mm 0 mps 739 mmHg 82%
    03:00 +23°C° 0.2 mm 0 mps 738 mmHg 85%
    04:00 +23°C° 0.1 mm 0 mps 739 mmHg 86%
    05:00 +23°C° 0.1 mm 0 mps 739 mmHg 88%
    06:00 +23°C° 0.1 mm 0 mps 740 mmHg 90%
    07:00 +26°C° 0 mm 0 mps 740 mmHg 79%
    08:00 +28°C° 0 mm 0 mps 740 mmHg 69%
    09:00 +31°C° 0 mm 0 mps 741 mmHg 59%
    10:00 +33°C° 0 mm 0 mps 740 mmHg 54%
    11:00 +35°C° 0 mm 0 mps 739 mmHg 49%
    12:00 +36°C° 0 mm 0 mps 738 mmHg 45%
    13:00 +36°C° 0 mm 0 mps 738 mmHg 44%
    14:00 +36°C° 0 mm 0 mps 737 mmHg 42%
    15:00 +36°C° 0 mm 0 mps 736 mmHg 41%
    16:00 +33°C° 0 mm 0 mps 736 mmHg 50%
    17:00 +31°C° 0 mm 0 mps 737 mmHg 59%
    18:00 +28°C° 0 mm 0 mps 737 mmHg 67%
    19:00 +28°C° 0 mm 0 mps 737 mmHg 70%
    20:00 +27°C° 0 mm 0 mps 738 mmHg 73%
    21:00 +26°C° 0 mm 0 mps 739 mmHg 76%
    22:00 +26°C° 0 mm 0 mps 739 mmHg 78%
    23:00 +25°C° 0 mm 0 mps 738 mmHg 79%

    21 September, Saturday

    Time Temperature Precipitation Wind Pressure Humidity
    00:00 +25°C° 0 mm 0 mps 738 mmHg 81%
    01:00 +25°C° 0.1 mm 0 mps 738 mmHg 81%
    02:00 +25°C° 0.1 mm 0 mps 738 mmHg 82%
    03:00 +24°C° 0.1 mm 0 mps 738 mmHg 82%
    04:00 +24°C° 0.2 mm 0 mps 738 mmHg 84%
    05:00 +24°C° 0.2 mm 0 mps 738 mmHg 86%
    06:00 +24°C° 0.2 mm 0 mps 739 mmHg 88%
    07:00 +24°C° 0.3 mm 0 mps 739 mmHg 89%
    08:00 +25°C° 0.3 mm 0 mps 739 mmHg 91%
    09:00 +25°C° 0.3 mm 0 mps 740 mmHg 92%
    10:00 +26°C° 0.1 mm 0 mps 739 mmHg 88%
    11:00 +27°C° 0.1 mm 0 mps 739 mmHg 83%
    12:00 +27°C° 0.1 mm 0 mps 739 mmHg 79%
    13:00 +27°C° 0 mm 0 mps 739 mmHg 79%
    14:00 +27°C° 0 mm 0 mps 738 mmHg 80%
    15:00 +27°C° 0 mm 0 mps 738 mmHg 80%
    16:00 +26°C° 0 mm 0 mps 738 mmHg 83%
    17:00 +26°C° 0 mm 0 mps 738 mmHg 85%
    18:00 +25°C° 0 mm 0 mps 739 mmHg 88%
    19:00 +24°C° 0.1 mm 0 mps 739 mmHg 89%
    20:00 +24°C° 0.1 mm 0 mps 740 mmHg 90%
    21:00 +24°C° 0.1 mm 0 mps 740 mmHg 91%
    22:00 +23°C° 0.2 mm 0 mps 740 mmHg 92%
    23:00 +23°C° 0.2 mm 0 mps 740 mmHg 93%

    22 September, Sunday

    Time Temperature Precipitation Wind Pressure Humidity
    00:00 +23°C° 0.2 mm 0 mps 740 mmHg 93%
    01:00 +23°C° 1.2 mm 0 mps 740 mmHg 95%
    02:00 +23°C° 1.2 mm 0 mps 740 mmHg 96%
    03:00 +23°C° 1.2 mm 0 mps 740 mmHg 97%
    04:00 +22°C° 1 mm 0 mps 740 mmHg 97%
    05:00 +22°C° 1 mm 0 mps 741 mmHg 98%
    06:00 +22°C° 1 mm 0 mps 741 mmHg 98%
    07:00 +22°C° 0.4 mm 0 mps 742 mmHg 98%
    08:00 +23°C° 0.4 mm 0 mps 742 mmHg 98%
    09:00 +23°C° 0.4 mm 0 mps 743 mmHg 98%
    10:00 +23°C° 0.7 mm 0 mps 743 mmHg 98%
    11:00 +23°C° 0.7 mm 0 mps 742 mmHg 97%
    12:00 +25°C° 0.7 mm 1 mps 742 mmHg 97%
    13:00 +25°C° 0.3 mm 1 mps 742 mmHg 97%
    14:00 +25°C° 0.3 mm 1 mps 741 mmHg 97%
    15:00 +24°C° 0.3 mm 1 mps 741 mmHg 98%
    16:00 +24°C° 0.1 mm 1 mps 741 mmHg 97%
    17:00 +24°C° 0.1 mm 1 mps 742 mmHg 97%
    18:00 +24°C° 0.1 mm 1 mps 742 mmHg 96%
    19:00 +24°C° 0.4 mm 1 mps 742 mmHg 97%
    20:00 +24°C° 0.4 mm 1 mps 743 mmHg 97%
    21:00 +23°C° 0.4 mm 1 mps 743 mmHg 97%
    22:00 +23°C° 0.3 mm 1 mps 743 mmHg 97%
    23:00 +23°C° 0.3 mm 1 mps 743 mmHg 96%
    Show more